This is the latest recevied weather packets stored in our database for station/object KC9TVS-13. If no packets are shown the sender has not sent any weather packets the latest 10 day(s).
| Time | Temp. | Humidity | Pressure | Rain* | Wind** | Luminosity | Snow |
|---|---|---|---|---|---|---|---|
| 1787763875 | 32.22° C | 66% | 1016.3 hPa | 0 mm | - | 861 W/m² | - |
| 1787763574 | 31.67° C | 68% | 1016.5 hPa | 0 mm | - | 867 W/m² | - |
| 1787763274 | 32.22° C | 70% | 1016.7 hPa | 0 mm | - | 863 W/m² | - |
| 1787762975 | 32.22° C | 69% | 1016.7 hPa | 0 mm | - | 860 W/m² | - |
| 1787762674 | 31.67° C | 74% | 1016.7 hPa | 0 mm | - | 856 W/m² | - |
| 1787762374 | 31.67° C | 69% | 1016.7 hPa | 0 mm | - | 851 W/m² | - |
| 1787762075 | 32.22° C | 70% | 1016.7 hPa | 0 mm | - | 844 W/m² | - |
| 1787761775 | 32.22° C | 68% | 1016.7 hPa | 0 mm | - | 835 W/m² | - |
| 1787761475 | 31.67° C | 67% | 1016.8 hPa | 0 mm | - | 830 W/m² | - |
| 1787761175 | 31.67° C | 70% | 1016.7 hPa | 0 mm | - | 824 W/m² | - |
| 1787760875 | 31.67° C | 69% | 1016.7 hPa | 0 mm | - | 828 W/m² | - |
| 1787760571 | 31.67° C | 74% | 1016.7 hPa | 0 mm | - | 816 W/m² | - |
| 1787760273 | 31.67° C | 75% | 1016.6 hPa | 0 mm | - | 805 W/m² | - |
| 1787759970 | 32.22° C | 69% | 1016.8 hPa | 0 mm | - | 791 W/m² | - |
| 1787759672 | 31.67° C | 74% | 1016.8 hPa | 0 mm | - | 780 W/m² | - |
| 1787759370 | 31.67° C | 75% | 1016.7 hPa | 0 mm | - | 773 W/m² | - |
| 1787759070 | 31.11° C | 73% | 1016.8 hPa | 0 mm | - | 759 W/m² | - |
| 1787758770 | 30.56° C | 71% | 1016.8 hPa | 0 mm | - | 752 W/m² | - |
| 1787758472 | 30.56° C | 74% | 1016.7 hPa | 0 mm | - | 738 W/m² | - |
| 1787758171 | 30.56° C | 75% | 1016.6 hPa | 0 mm | - | 722 W/m² | - |
| 1787757871 | 30.56° C | 73% | 1016.7 hPa | 0 mm | - | 717 W/m² | - |
| 1787757571 | 30.56° C | 75% | 1016.8 hPa | 0 mm | - | 707 W/m² | - |
| 1787757271 | 30° C | 77% | 1016.7 hPa | 0 mm | - | 696 W/m² | - |
| 1787756971 | 30° C | 76% | 1016.6 hPa | 0 mm | - | 677 W/m² | - |
| 1787756671 | 30° C | 77% | 1016.6 hPa | 0 mm | - | 666 W/m² | - |
* Rain latest hour (hover to see other rain measurements)
** Current wind speed in m/s (hover to see current wind gust speed)